This demonstration page uses our WeatherBlox Daily Observations layout. Learn more.

Left ArrowRight Arrow

39.51506, -84.39828

Hourly Observations for May 17, 2015

Temp ( °F °C ) Dew Point ( °F °C ) Humidity (%) Winds ( mph kmh ) Pressure ( in mb ) Visibility ( mi km ) Precip ( " mm )
12:15 am 00:15 Mostly Cloudy 69 20.8 66 18.7 88 88 SSW 6 9 30.12 1020 10 16 0.00 0.00
12:35 am 00:35 Partly Cloudy 69 20.8 66 18.7 88 88 Calm 30.12 1020 10 16 0.00 0.00
12:55 am 00:55 Mostly Cloudy 69 20.8 66 18.7 88 88 Calm 30.12 1020 10 16 0.00 0.00
1:15 am 01:15 Cloudy with Drizzle 69 20.8 66 18.9 89 89 S 6 9 30.09 1019 7 11 0.00 0.00
1:35 am 01:35 Cloudy 69 20.8 65 18.6 87 87 SSW 7 11 30.09 1019 10 16 0.00 0.00
1:55 am 01:55 Cloudy 70 21 65 18.6 86 86 SSW 5 7 30.09 1019 10 16 0.00 0.00
2:15 am 02:15 Cloudy 70 20.9 65 18.5 86 86 SSW 6 9 30.09 1019 10 16 0.00 0.00
2:35 am 02:35 Cloudy 69 20.8 65 18.5 87 87 S 5 7 30.09 1019 10 16 0.00 0.00
2:55 am 02:55 Cloudy 69 20.8 65 18.5 87 87 S 5 7 30.09 1019 10 16 0.00 0.00
3:15 am 03:15 Cloudy 69 20.8 65 18.5 87 87 S 5 7 30.09 1019 10 16 0.00 0.00
3:35 am 03:35 Cloudy 69 20.8 65 18.5 87 87 S 3 6 30.09 1019 10 16 0.00 0.00
3:55 am 03:55 Mostly Cloudy 69 20.8 65 18.5 87 87 S 5 7 30.09 1019 10 16 0.00 0.00
4:15 am 04:15 Mostly Cloudy 69 20.8 65 18.5 87 87 SSW 3 6 30.09 1019 10 16 0.00 0.00
4:35 am 04:35 Cloudy 69 20.8 65 18.5 87 87 S 3 6 30.09 1019 10 16 0.00 0.00
4:55 am 04:55 Mostly Cloudy 69 20.8 65 18.5 87 87 Calm 30.09 1019 7 11 0.00 0.00
5:15 am 05:15 Mostly Cloudy 69 20.8 66 18.7 88 88 Calm 30.09 1019 7 11 0.00 0.00
5:35 am 05:35 Mostly Cloudy with Mist and Fog 69 20.8 66 18.7 88 88 Calm 30.12 1020 5 8 0.00 0.00
5:55 am 05:55 Mostly Cloudy with Mist and Fog 69 20.8 66 19 90 90 Calm 30.12 1020 3 5 0.00 0.00
6:15 am 06:15 Mostly Cloudy with Mist and Fog 69 20.8 66 19 90 90 Calm 30.12 1020 4 6 0.00 0.00
6:35 am 06:35 Partly Cloudy with Mist and Fog 69 20.8 66 19 90 90 Calm 30.12 1020 3 5 0.00 0.00
6:55 am 06:55 Partly Cloudy with Mist and Fog 69 20.8 66 19 90 90 Calm 30.12 1020 3 5 0.00 0.00
7:15 am 07:15 Mostly Cloudy with Mist and Fog 69 20.8 66 19.1 90 90 Calm 30.12 1020 4 6 0.00 0.00
7:35 am 07:35 Cloudy 69 20.8 66 19 90 90 SW 5 7 30.15 1021 10 16 0.00 0.00
7:55 am 07:55 Cloudy with Light Rain 69 20.8 66 19 90 90 Calm 30.15 1021 2 2 0.00 0.00
8:15 am 08:15 Cloudy with Mist and Fog 69 20.8 66 19 90 90 Calm 30.15 1021 4 6 0.00 0.00
8:35 am 08:35 Cloudy with Mist and Fog 69 20.8 66 19 90 90 Calm 30.15 1021 5 8 0.00 0.00
8:55 am 08:55 Mostly Cloudy 73 22.7 69 20.5 87 87 SSW 5 7 30.12 1020 7 11 0.00 0.00
9:15 am 09:15 Mostly Cloudy 74 23.6 69 20.8 84 84 SSW 7 11 30.12 1020 10 16 0.00 0.00
9:35 am 09:35 Cloudy 74 23.6 68 20.2 81 81 SSW 7 11 30.12 1020 10 16 0.00 0.00
9:55 am 09:55 Mostly Cloudy 76 24.4 68 20.2 78 78 SSW 8 13 30.12 1020 10 16 0.00 0.00
10:15 am 10:15 Mostly Cloudy 77 25.1 68 20.2 74 74 SSW 8 13 30.12 1020 10 16 0.00 0.00
10:35 am 10:35 Mostly Cloudy 77 25.1 69 20.3 75 75 SW 12 19 30.12 1020 10 16 0.00 0.00
10:55 am 10:55 Mostly Cloudy 77 25.1 67 19.6 72 72 SW 10 17 30.12 1020 10 16 0.00 0.00
11:15 am 11:15 Mostly Cloudy 80 26.5 69 20.4 69 69 SW 9 15 30.12 1020 10 16 0.00 0.00
11:35 am 11:35 Partly Cloudy 80 26.5 67 19.7 66 66 SW 10 17 30.12 1020 10 16 0.00 0.00
11:55 am 11:55 Partly Cloudy 80 26.5 68 19.8 67 67 SW 8 13 30.12 1020 10 16 0.00 0.00
12:15 pm 12:15 Mostly Cloudy 80 26.5 67 19.6 66 66 SW 9 15 30.12 1020 10 16 0.00 0.00
12:35 pm 12:35 Partly Cloudy 80 26.6 67 19.4 65 65 SW 9 15 30.12 1020 10 16 0.00 0.00
12:55 pm 12:55 Mostly Cloudy 80 26.5 66 18.9 63 63 SSW 8 13 30.12 1020 10 16 0.00 0.00
1:15 pm 13:15 Cloudy 81 27.1 67 19.2 62 62 SW 7 11 30.12 1020 10 16 0.00 0.00
1:35 pm 13:35 Cloudy 80 26.5 67 19.2 64 64 SW 10 17 30.12 1020 10 16 0.00 0.00
1:55 pm 13:55 Mostly Cloudy 82 28 67 19.6 60 60 SW 13 20 30.12 1020 10 16 0.00 0.00
2:15 pm 14:15 Mostly Cloudy 82 28 67 19.5 60 60 SW 15 24 30.12 1020 10 16 0.00 0.00
2:35 pm 14:35 Partly Cloudy 80 26.5 68 20 68 68 SW 14 22 30.12 1020 10 16 0.00 0.00
2:55 pm 14:55 Sunny 81 27.2 67 19.5 63 63 SSW 9 15 30.09 1019 10 16 0.00 0.00
3:15 pm 15:15 Sunny 82 28 69 20.5 64 64 SSW 10 17 30.09 1019 10 16 0.00 0.00
3:35 pm 15:35 Mostly Cloudy 81 27 67 19.6 64 64 SW 13 20 30.09 1019 10 16 0.00 0.00
3:55 pm 15:55 Mostly Cloudy with Light Rain 75 23.7 67 19.3 76 76 SSW 10 17 30.09 1019 10 16 0.00 0.00
4:15 pm 16:15 Partly Cloudy 77 25 69 20.7 77 77 SE 3 6 30.09 1019 10 16 0.00 0.00
4:35 pm 16:35 Sunny 80 26.5 68 20.1 68 68 SSW 3 6 30.06 1018 10 16 0.00 0.00
4:55 pm 16:55 Sunny 81 27.2 69 20.8 68 68 SSW 7 11 30.06 1018 10 16 0.00 0.00
5:15 pm 17:15 Partly Cloudy 80 26.8 69 20.7 69 69 S 8 13 30.06 1018 10 16 0.00 0.00
5:35 pm 17:35 Partly Cloudy 82 27.7 67 19.3 60 60 SSW 16 26 30.06 1018 10 16 0.00 0.00
5:55 pm 17:55 Sunny 82 28 66 19.1 58 58 SW 12 19 30.06 1018 10 16 0.00 0.00
6:15 pm 18:15 Sunny 82 28 66 19 58 58 SSW 10 17 30.03 1017 10 16 0.00 0.00
6:35 pm 18:35 Sunny 82 28 66 18.8 57 57 SSW 8 13 30.03 1017 10 16 0.00 0.00
6:55 pm 18:55 Sunny 81 27.3 65 18.4 58 58 SSW 12 19 30.03 1017 10 16 0.00 0.00
7:15 pm 19:15 Mostly Cloudy 81 27.2 65 18.6 59 59 SSW 10 17 30.03 1017 10 16 0.00 0.00
7:35 pm 19:35 Partly Cloudy 81 27.2 66 18.8 60 60 S 13 20 30.03 1017 10 16 0.00 0.00
7:55 pm 19:55 Sunny 81 27 66 18.8 61 61 S 9 15 30.03 1017 10 16 0.00 0.00
8:15 pm 20:15 Sunny 80 26.5 66 19 63 63 SSW 8 13 30.03 1017 10 16 0.00 0.00
8:35 pm 20:35 Partly Cloudy 80 26.5 66 18.7 62 62 SSW 7 11 30.06 1018 10 16 0.00 0.00
8:55 pm 20:55 Clear 80 26.5 66 19.1 64 64 SSW 7 11 30.06 1018 10 16 0.00 0.00
9:15 pm 21:15 Partly Cloudy 80 26.5 67 19.2 64 64 SSW 9 15 30.06 1018 10 16 0.00 0.00
9:35 pm 21:35 Mostly Cloudy 80 26.5 66 18.8 63 63 SSW 10 17 30.06 1018 10 16 0.00 0.00
9:55 pm 21:55 Mostly Cloudy 80 26.5 66 18.8 63 63 SSW 9 15 30.06 1018 10 16 0.00 0.00
10:15 pm 22:15 Mostly Cloudy 80 26.5 66 19.1 64 64 SSW 8 13 30.06 1018 10 16 0.00 0.00
10:35 pm 22:35 Mostly Cloudy 77 25.1 66 18.7 68 68 SSW 10 17 30.06 1018 10 16 0.00 0.00
10:55 pm 22:55 Partly Cloudy 77 25.1 66 19.1 69 69 SSW 8 13 30.09 1019 10 16 0.00 0.00
11:15 pm 23:15 Partly Cloudy 77 25.1 68 19.8 73 73 SSW 7 11 30.09 1019 10 16 0.00 0.00
11:35 pm 23:35 Partly Cloudy 77 25.1 68 20.1 74 74 SSW 6 9 30.09 1019 10 16 0.00 0.00
11:55 pm 23:55 Partly Cloudy 76 24.2 67 19.7 76 76 SSW 8 13 30.06 1018 10 16 0.00 0.00

Powered by AerisWeather